XINGYUN-2 01 (45602 NORAD) Tracking and Keplerian Element Data

This shows tracking and keplerian element data for the satellite.

Feedback or suggestion? Click here.




ElementValue
Catalog45602
NameXINGYUN-2 01
Epoch Orbit857
Epoch Day190.17301933
Epoch Year2020
RAAN219.7327
Inclination97.5655
Eccentricity0.0013424
Argument of Perigee67.5322
Mean Anonmoly292.732
Mean Motion15.00734693
Decay Rate8.78E-06
L11 45602U 20028A 20190.17301933 .00000878 00000-0 73797-4 0 9998
L22 45602 97.5655 219.7327 0013424 67.5322 292.7320 15.00734693 8579

Live tracking and technical data element details for XINGYUN-2 01 (NORAD 45602). XINGYUN-2 01 can be tracked NOW for your location showing map with azimuth and elevation plus other details from your city location.

Track the satellite on the map from your city or location and see movement details for azimuth, elevation, latitude, longitude, range, height, and movement on the map or in text.







IsCatalogInMostPopularTable: catalog: 45602, numindb: 9
Update: records affected: 1



GetName: 45602 XINGYUN-2 01

Hit Count: updated at: Thu, 09 Jul 2020 01:49:12 GMT